CAPE
0 0 38 140 656 625 425 276 199 420 713 1084 1380 1534 1505 1494 1725 1519 1488 1302 1522 1645 1624 1685 1716 1727 1663 1559 1548 1515 1567 1538 1400 1378 1327 983 833 940 984 1124 1137 1294 1474
0 5 163 281 748 436 479 176 253 465 903 1056 1469 1567 1660 1787 1373 1710 1618 1657 1566 1525 1583 1535 1621 1340 1531 1648 1443 1181 1097 1128 1268 1316 1297 1026 1044 905 683 481 538 921 1075
0 112 409 599 495 303 560 366 294 725 1231 1380 1952 1995 1937 1772 1763 1764 1491 1500 1550 1423 1420 1443 1497 933 883 1136 1245 1093 901 671 685 815 976 946 1144 1169 1207 922 453 616 1076
45 62 226 383 412 468 503 655 522 770 1246 1671 1587 1604 1608 1674 1594 1398 1253 1512 1805 1542 1182 856 939 1551 525 329 464 649 821 933 903 950 174 241 372 820 998 935 1051 1035 1038
26 34 179 380 561 615 666 658 594 1018 1802 1851 1568 1737 1767 1702 1668 1298 1386 1757 1719 1534 1070 775 507 153 24 0 109 168 182 549 594 301 243 560 998 824 1042 1200 1042 1001 729
13 52 291 364 452 765 983 908 626 1592 1613 1905 1847 1972 1997 1790 1483 1585 1835 1876 2111 1703 1333 992 451 85 0 0 17 33 133 657 65 0 1 62 208 748 862 835 814 892 798
61 150 392 657 802 901 176 718 968 1606 1709 1568 2024 2060 1845 1495 1637 1833 1697 1696 1754 1935 1560 1403 944 120 0 0 0 0 6 483 313 500 448 476 405 417 303 194 490 909 657
25 80 215 316 296 203 655 321 986 1550 1582 1741 1785 1966 1321 1067 1437 1453 1341 1240 1241 1267 1638 1441 1078 279 0 0 0 0 5 311 107 63 384 486 567 651 873 1021 853 481 252
5 10 9 164 76 150 427 475 949 1137 1630 1564 1530 1809 1240 790 1031 1025 975 908 951 1152 1249 1344 1079 638 113 0 0 0 0 0 0 0 0 0 0 44 211 387 475 524 708
0 0 0 40 11 105 140 125 669 840 1528 1539 1835 1719 1004 502 767 758 742 732 937 1167 1278 1208 970 744 559 278 53 1 0 0 0 0 0 0 0 0 0 0 11 31 47
37 15 29 82 106 130 85 9 849 982 1596 1312 1282 1218 1378 834 629 868 723 562 876 1063 1206 1338 1251 1085 669 558 643 549 327 0 0 0 0 0 0 0 0 0 0 0 0
91 73 8 26 242 196 390 67 421 876 1119 1075 1035 976 1200 1375 1189 427 251 521 928 1162 1334 1386 1496 1257 1276 956 659 729 172 0 0 0 0 0 0 0 0 0 0 0 0
176 155 27 176 442 367 249 209 309 846 1151 1235 1245 969 1300 1351 782 5 149 374 865 1190 1388 1560 1749 1473 1235 1308 1577 937 2 0 0 0 0 10 14 15 8 0 0 0 0
233 408 619 498 425 254 120 741 707 1003 1345 1537 1421 1762 886 561 21 15 147 632 1209 1221 1499 1337 1184 1438 1187 1212 1138 533 37 92 46 19 49 75 80 88 75 47 31 13 0
153 388 440 528 578 222 515 873 1004 1137 1510 992 1024 1069 1140 702 982 863 646 709 825 1435 1152 878 1164 1437 1264 972 890 285 258 312 185 97 101 193 153 154 154 133 106 83 64
71 227 308 492 555 827 833 703 813 1056 1439 894 738 843 1035 1034 669 401 360 474 725 997 919 1079 1135 1286 1607 1038 700 853 555 514 475 348 228 398 314 280 287 325 263 216 190
94 208 176 294 420 392 519 426 678 887 1185 965 592 618 1060 645 813 928 657 628 801 277 1001 1221 1317 1430 1373 1000 761 694 733 726 785 710 530 480 519 500 445 453 490 443 428
116 109 103 128 351 216 301 356 652 684 740 855 499 306 838 957 680 1125 1157 404 645 599 999 1284 1611 1331 797 948 1017 860 871 967 933 916 895 777 650 600 650 656 710 749 661
25 38 40 84 96 122 329 132 400 462 454 744 597 403 1000 1026 544 870 1540 1040 529 355 830 1292 1533 1018 1049 1423 1139 949 860 957 1020 1069 1031 882 872 849 705 708 823 857 948
25 30 44 33 60 40 359 66 323 697 269 547 538 393 383 812 866 981 1345 1395 469 440 1682 914 1312 950 1373 1319 1389 899 1158 924 1033 928 780 772 838 889 956 1005 954 996 1193
33 8 46 18 79 77 65 145 258 345 179 194 347 518 527 491 384 1024 1034 1506 185 309 1430 1391 987 1190 1354 1866 636 807 935 1016 686 474 609 498 779 790 1014 1130 908 1022 1416
0 28 2 119 120 149 41 100 289 270 144 68 183 648 621 798 543 648 949 1169 891 119 1180 569 1018 1207 1676 1701 932 609 889 1154 836 624 445 577 515 362 364 573 904 991 787
0 0 46 62 104 136 140 36 169 304 219 74 412 716 633 741 599 424 551 682 1293 1442 945 493 760 891 1302 1383 1415 652 1088 1260 705 1065 738 740 579 451 444 226 79 37 104
0 30 31 152 237 161 244 169 30 79 152 349 444 794 732 512 727 903 596 866 778 1147 739 912 918 1240 2074 1065 989 1459 1290 967 653 245 417 910 944 862 750 461 293 136 0
0 97 87 229 399 237 209 208 164 167 250 67 277 582 394 589 504 522 741 470 1133 671 900 1021 1585 1751 1494 1314 1728 1649 1410 1642 1217 962 783 1054 894 636 493 112 0 15 0
12 82 196 257 439 414 183 136 616 350 399 218 168 301 603 410 680 534 431 538 1217 970 642 413 825 1354 1342 1347 1225 906 789 713 690 1068 1272 908 633 605 436 4 0 45 7
CIN
-0 -0 -49 -61 -0 -0 -8 -12 -10 -8 -2 -2 -0 -0 -0 -0 -0 -0 -0 -3 -1 -0 -0 -0 -0 -0 -0 -0 -0 -0 -0 -0 -1 -3 -2 -11 -11 -2 -1 -0 -1 -0 -0
-0 -62 -41 -18 -0 -6 -8 -24 -15 -9 -2 -2 -0 -0 -0 -0 -0 -0 -0 -0 -0 -0 -0 -0 -0 -0 -0 -0 -0 -9 -15 -8 -3 -4 -9 -16 -1 -2 -6 -17 -24 -1 -0
-24 -81 -13 -0 -4 -28 -10 -23 -20 -8 -2 -1 -0 -0 -0 -0 -0 -0 -0 -0 -0 -0 -0 -0 -0 -8 -15 -11 -14 -14 -17 -14 -10 -2 -11 -23 -1 -0 -0 -3 -19 -10 -0
-73 -76 -31 -6 -10 -13 -21 -17 -16 -9 -3 -0 -0 -1 -1 -0 -0 -0 -1 -0 -0 -0 -0 -3 -4 -0 -35 -59 -48 -38 -28 -12 -5 -6 -58 -38 -21 -0 -0 -0 -0 -0 -0
-73 -68 -28 -5 -1 -9 -23 -22 -20 -8 -0 -0 -0 -0 -0 -0 -0 -0 -1 -0 -0 -0 -0 -19 -55 -130 -39 -0 -108 -79 -62 -22 -16 -29 -51 -23 -2 -0 -0 -0 -0 -0 -0
-120 -128 -15 -5 -4 -1 -4 -15 -25 -0 -1 -0 -0 -0 -0 -0 -4 -1 -0 -0 -0 -0 -5 -24 -89 -158 -0 -0 -162 -131 -86 -24 -136 -5 -4 -150 -93 -2 -0 -0 -0 -0 -0
-97 -41 -5 -0 -0 -0 -47 -17 -18 -0 -0 -3 -0 -0 -1 -12 -6 -1 -9 -13 -13 -5 -17 -19 -51 -201 -0 -0 -0 -0 -19 -42 -87 -75 -83 -75 -89 -71 -81 -97 -27 -0 -1
-114 -60 -28 -4 -4 -32 -5 -40 -15 -0 -0 -4 -0 -0 -22 -30 -16 -24 -31 -38 -44 -42 -32 -39 -56 -159 -0 -0 -0 -0 -49 -96 -211 -133 -153 -133 -93 -64 -28 -7 -11 -47 -77
-153 -50 -17 -23 -40 -27 -20 -28 -23 -23 -9 -11 -9 -7 -31 -50 -38 -47 -55 -69 -73 -69 -64 -63 -81 -106 -223 -0 -0 -0 -0 -0 -0 -0 -0 -0 -0 -122 -192 -128 -99 -78 -39
-0 -0 -0 -57 -62 -47 -45 -81 -46 -43 -12 -10 -6 -7 -43 -62 -62 -69 -76 -88 -81 -80 -75 -80 -85 -113 -138 -184 -242 -12 -0 -0 -0 -0 -0 -0 -0 -0 -0 -0 -365 -310 -283
-132 -217 -122 -79 -61 -67 -137 -140 -45 -37 -12 -23 -23 -31 -30 -47 -60 -64 -85 -85 -80 -85 -90 -86 -87 -82 -119 -140 -137 -150 -181 -0 -0 -0 -0 -0 -0 -0 -0 -0 -0 -0 -0
-69 -94 -235 -163 -54 -56 -51 -107 -72 -49 -37 -32 -34 -47 -45 -38 -45 -69 -102 -68 -72 -78 -96 -100 -97 -81 -86 -102 -111 -142 -203 -0 -0 -0 -0 -0 -0 -0 -0 -0 -0 -0 -0
-70 -72 -221 -113 -63 -57 -67 -85 -84 -63 -46 -47 -32 -38 -37 -37 -46 -14 -96 -78 -81 -67 -56 -61 -70 -97 -91 -88 -66 -105 -25 -0 -0 -0 -0 -431 -451 -542 -500 -0 -0 -0 -0
-31 -49 -42 -66 -66 -66 -80 -74 -64 -53 -33 -22 -18 -14 -25 -47 -45 -12 -117 -56 -41 -39 -21 -26 -36 -56 -89 -62 -43 -138 -268 -298 -357 -411 -423 -398 -423 -443 -467 -510 -546 -588 -24
-63 -36 -37 -36 -39 -74 -43 -35 -26 -35 -30 -31 -26 -23 -16 -22 -20 -32 -45 -29 -32 -20 -25 -32 -36 -30 -38 -28 -44 -98 -169 -205 -279 -372 -405 -367 -401 -393 -406 -415 -458 -490 -519
-103 -61 -39 -43 -23 -16 -19 -14 -29 -29 -24 -33 -32 -22 -22 -22 -29 -62 -45 -61 -47 -29 -41 -39 -45 -38 -38 -35 -41 -51 -99 -188 -204 -253 -335 -339 -363 -368 -364 -370 -380 -384 -407
-105 -80 -56 -49 -45 -53 -32 -24 -27 -16 -21 -26 -35 -26 -28 -53 -25 -31 -42 -46 -35 -108 -38 -42 -47 -56 -36 -42 -49 -78 -108 -88 -141 -174 -259 -300 -309 -328 -357 -327 -322 -341 -327
-78 -98 -80 -65 -60 -72 -57 -26 -21 -18 -23 -31 -39 -72 -31 -38 -45 -20 -22 -83 -53 -61 -60 -58 -41 -38 -67 -37 -44 -58 -55 -81 -97 -107 -192 -236 -274 -280 -303 -292 -284 -259 -271
-85 -136 -165 -114 -92 -93 -45 -97 -30 -21 -28 -42 -32 -58 -43 -38 -67 -32 -33 -30 -64 -93 -78 -40 -24 -63 -48 -36 -38 -56 -59 -52 -89 -79 -109 -170 -181 -235 -260 -247 -229 -221 -209
-103 -129 -126 -180 -158 -168 -57 -160 -31 -24 -58 -51 -47 -54 -83 -40 -45 -35 -25 -23 -80 -113 -26 -69 -40 -76 -59 -59 -55 -78 -59 -72 -69 -73 -98 -111 -128 -162 -168 -170 -185 -203 -175
-110 -124 -148 -185 -141 -166 -176 -120 -62 -33 -97 -101 -74 -58 -63 -67 -78 -31 -39 -24 -149 -123 -25 -40 -86 -64 -60 -58 -114 -81 -69 -59 -62 -103 -87 -113 -91 -79 -85 -98 -140 -136 -109
-0 -128 -38 -93 -109 -101 -208 -119 -45 -49 -100 -185 -116 -52 -79 -55 -56 -53 -47 -39 -57 -200 -47 -108 -63 -51 -53 -61 -83 -109 -42 -44 -59 -82 -96 -67 -57 -78 -78 -77 -64 -69 -89
-0 -0 -169 -162 -127 -101 -105 -187 -70 -43 -68 -139 -62 -50 -66 -56 -63 -86 -80 -65 -30 -30 -69 -121 -94 -88 -53 -66 -63 -111 -43 -34 -94 -57 -51 -60 -70 -100 -104 -138 -151 -173 -139
-0 -136 -180 -134 -98 -120 -62 -82 -206 -137 -107 -61 -48 -51 -56 -68 -62 -52 -77 -51 -58 -21 -73 -65 -64 -51 -24 -62 -89 -69 -76 -83 -75 -79 -92 -57 -58 -51 -63 -78 -79 -98 -0
-0 -225 -200 -127 -79 -111 -106 -101 -100 -90 -67 -114 -63 -38 -80 -64 -73 -93 -65 -118 -40 -72 -47 -34 -15 -17 -29 -38 -27 -46 -60 -51 -79 -71 -75 -51 -52 -76 -80 -116 -0 -183 -0
-185 -243 -192 -179 -138 -110 -159 -167 -34 -67 -46 -70 -80 -76 -63 -97 -81 -104 -129 -114 -38 -47 -74 -122 -72 -29 -22 -32 -48 -94 -100 -97 -89 -46 -28 -66 -88 -96 -86 -19 -0 -148 -97
Wind_Speed
28 27 25 26 23 17 15 14 8 10 12 11 11 9 11 7 10 13 16 15 19 17 21 25 31 31 30 30 31 31 31 31 31 31 31 31 29 28 28 30 29 29 28
31 27 25 30 24 19 14 12 8 12 12 10 10 7 6 8 14 14 13 14 15 18 29 30 30 29 28 28 30 31 32 31 32 31 31 31 28 29 30 29 28 28 27
23 24 27 31 30 31 9 17 5 9 3 10 7 5 6 8 11 12 11 12 8 25 29 28 29 27 27 29 29 29 29 28 29 30 29 28 26 27 28 28 28 28 27
21 18 18 25 30 28 23 18 7 3 10 9 4 8 7 9 7 7 3 1 19 29 26 23 23 24 26 28 27 26 23 22 22 24 27 27 27 27 28 27 27 27 27
5 2 13 15 17 23 19 15 23 5 8 8 4 10 6 3 3 1 7 29 23 25 25 24 24 24 26 27 27 25 22 21 24 30 30 29 26 27 26 28 25 25 26
6 3 2 13 19 21 19 11 8 5 7 12 12 2 4 3 2 6 22 28 17 24 25 24 23 25 27 29 27 24 21 22 32 31 28 28 27 27 27 27 25 26 25
8 7 11 17 18 20 24 24 4 15 9 9 6 2 5 4 1 30 30 21 22 24 24 23 25 27 29 29 26 23 20 29 33 32 30 28 29 29 29 28 28 27 26
21 20 18 20 18 20 18 13 3 13 17 14 11 6 7 10 24 30 25 22 23 23 24 24 25 28 29 28 27 26 23 33 33 34 33 30 31 30 31 31 30 29 28
24 22 22 22 25 25 21 11 17 21 23 9 13 13 16 23 27 27 26 25 25 24 24 23 25 27 28 27 27 26 24 35 35 34 32 30 30 30 30 29 30 30 30
26 26 29 30 33 32 27 16 20 15 16 15 14 15 21 27 28 26 26 25 24 23 23 23 23 24 24 25 25 25 28 35 34 33 32 31 32 32 31 30 30 30 29
29 30 32 34 32 34 38 36 27 25 25 20 21 22 26 27 27 26 25 22 22 21 21 21 22 22 22 22 23 24 25 32 33 32 31 32 31 31 31 30 30 29 29
30 33 35 35 34 37 38 34 28 27 24 21 21 25 25 24 27 26 23 20 18 17 18 20 21 22 21 22 23 26 28 31 32 31 30 30 29 29 29 28 28 27 27
30 31 34 34 34 36 34 33 30 27 25 23 25 24 24 24 28 26 22 19 16 14 15 19 21 23 23 23 23 27 29 29 30 29 28 28 27 26 26 25 25 25 25
29 28 30 31 32 32 30 30 29 28 26 26 23 20 26 27 26 24 22 18 16 14 14 15 21 24 24 24 21 29 29 27 27 27 26 26 25 24 23 23 22 22 21
26 24 28 29 29 29 28 28 28 28 27 27 22 21 23 21 22 25 23 17 13 9 12 15 18 15 14 16 18 30 27 26 25 23 23 23 22 22 21 21 20 19 19
24 24 25 28 26 26 28 5 13 28 29 27 25 25 18 23 20 24 22 18 13 13 15 17 17 16 16 20 23 22 24 25 23 22 20 19 19 18 18 17 17 17 16
22 23 24 25 23 21 25 19 3 8 19 19 26 26 17 20 20 20 21 20 19 18 18 17 16 15 17 21 22 20 22 22 21 20 19 18 17 15 15 14 14 13 13
22 23 21 21 19 16 20 31 14 23 6 8 15 20 24 23 24 23 23 20 22 20 19 17 15 16 18 15 18 19 20 20 18 18 17 17 16 14 13 12 11 10 10
21 20 20 18 16 15 17 29 29 27 15 3 7 13 23 26 27 26 21 24 21 22 18 18 15 14 15 14 14 15 19 18 18 17 16 16 14 13 12 10 9 8 7
20 18 17 16 17 15 14 23 31 27 14 12 6 14 18 22 28 26 23 26 21 19 19 17 16 18 18 18 17 16 18 18 18 16 14 13 13 11 10 9 8 7 5
19 18 12 13 16 15 15 16 21 27 21 25 14 11 17 18 24 26 25 24 21 16 18 17 20 19 20 19 18 17 16 18 16 15 14 12 12 9 8 6 6 5 6
20 17 17 11 17 14 15 16 6 10 18 28 24 7 14 16 15 4 27 25 25 20 14 8 16 22 21 20 19 19 18 17 19 15 13 12 9 10 10 8 4 3 4
18 19 16 14 17 14 13 13 15 2 6 24 23 4 10 11 12 10 22 29 26 24 17 16 20 21 20 20 14 11 15 16 20 17 17 11 8 7 10 5 6 10 9
16 17 17 15 15 15 14 13 16 17 6 5 26 6 8 10 7 9 8 24 30 24 21 14 18 17 10 5 14 14 6 10 15 24 14 26 18 27 19 13 5 6 6
14 15 16 14 14 14 15 13 14 14 3 19 24 9 6 8 11 13 13 11 6 22 16 12 3 2 1 10 14 15 15 10 12 11 12 26 31 30 27 32 32 19 4
10 11 11 13 14 14 15 17 15 15 11 12 33 26 6 6 9 15 18 21 18 18 14 7 4 2 2 6 8 14 15 15 15 18 14 10 11 21 22 32 34 34 3
Wind_Direction
168 170 170 164 163 168 165 162 158 151 148 143 142 131 136 88 134 139 140 140 139 140 136 125 98 92 83 79 88 84 92 88 90 88 87 93 105 107 106 83 89 88 87
159 170 172 158 169 171 175 171 165 160 152 146 144 114 103 128 143 143 142 144 144 139 110 104 93 99 108 109 107 102 98 100 99 95 93 90 109 103 95 91 93 96 95
174 175 172 158 153 134 181 138 175 169 97 154 144 102 100 139 148 150 151 150 150 121 103 105 101 114 116 112 114 113 112 114 110 101 107 106 113 107 97 94 96 99 101
173 185 189 176 126 115 88 71 129 132 168 160 121 149 146 150 150 155 143 93 38 76 114 125 129 126 122 120 121 124 129 134 132 130 115 111 111 107 103 101 101 102 101
93 115 198 86 92 101 87 73 80 165 170 162 118 161 150 124 130 110 23 74 118 119 123 125 126 127 129 127 126 128 131 134 128 114 109 104 114 112 109 100 107 109 104
68 47 223 81 99 100 92 78 73 160 168 169 166 93 159 158 67 26 49 67 142 128 125 126 129 128 130 129 129 129 129 131 113 107 109 107 111 110 107 104 106 105 106
66 41 59 85 94 101 101 99 125 73 174 170 178 161 182 181 162 87 100 136 133 129 129 130 127 128 129 129 131 129 130 120 97 100 108 113 111 106 105 104 103 103 103
79 74 72 84 91 100 98 90 143 177 178 180 186 193 192 178 142 103 134 138 134 134 131 130 130 130 130 130 128 123 126 106 101 101 105 113 108 107 104 101 100 100 100
89 81 83 86 96 105 102 93 182 177 170 196 189 187 173 150 133 135 136 136 138 135 133 133 133 131 130 131 127 124 124 94 99 103 110 112 108 108 106 104 100 97 95
94 96 104 108 122 122 112 107 183 191 189 189 186 180 161 135 134 143 141 145 143 142 138 135 134 137 137 136 133 128 119 89 103 108 109 109 105 103 103 102 101 98 97
104 111 117 134 140 151 146 149 170 174 168 177 172 161 144 136 141 147 152 152 149 147 145 143 142 140 144 143 140 137 130 109 109 111 113 108 106 104 102 103 101 100 100
115 126 130 139 138 137 144 154 171 170 174 181 173 154 146 151 151 155 162 160 163 162 162 153 146 146 149 149 145 137 128 114 111 111 113 111 110 108 106 105 104 102 100
123 123 131 131 133 136 136 148 167 173 179 179 163 160 160 165 152 162 167 170 173 177 170 157 149 147 149 148 148 141 127 118 112 113 115 115 114 113 111 109 107 105 102
126 123 133 134 134 139 137 143 154 175 181 170 172 186 158 149 153 170 173 183 185 187 176 169 147 141 150 142 148 131 126 123 120 118 119 120 119 117 116 114 111 110 107
122 125 133 135 137 140 139 151 161 182 178 169 182 193 179 180 178 176 182 192 198 210 199 182 165 170 174 166 154 123 117 122 127 129 130 128 125 122 120 117 115 112 111
122 127 132 138 128 140 152 115 115 192 180 156 171 178 206 185 194 185 191 199 222 212 194 183 177 179 180 157 151 150 129 127 130 134 136 136 135 131 126 122 117 113 113
124 125 132 134 132 127 143 126 68 97 122 125 163 168 223 207 209 205 205 204 201 202 199 191 194 203 192 168 155 164 151 137 133 135 137 137 140 143 137 128 122 117 113
124 127 126 129 130 129 139 173 202 209 281 95 112 132 205 204 204 197 202 215 202 211 216 211 215 197 186 193 171 161 162 154 150 143 144 139 140 138 139 136 127 124 120
132 132 133 128 129 131 136 174 203 214 255 99 96 116 154 183 194 199 218 207 223 215 237 225 232 237 230 231 219 227 168 159 163 162 166 146 144 133 129 132 130 124 116
135 135 133 133 133 129 131 154 196 224 263 268 112 125 133 152 184 210 217 201 242 247 245 244 252 242 240 232 229 233 219 199 172 156 160 145 144 132 134 120 109 107 113
132 137 127 132 138 131 134 141 155 181 251 240 271 139 143 144 164 224 189 210 238 264 256 268 254 245 243 237 229 234 226 201 174 171 175 166 145 137 115 111 97 84 63
140 135 141 128 141 136 140 146 141 136 160 224 251 145 146 146 147 219 196 201 217 257 147 110 159 220 226 252 227 231 235 219 232 215 132 83 94 73 53 64 89 76 47
145 145 140 139 144 139 140 145 152 257 166 188 254 246 152 147 150 154 251 209 216 250 164 164 177 182 192 220 161 128 335 323 257 257 337 337 60 51 39 42 30 24 34
146 146 144 144 150 150 145 147 160 165 176 255 253 226 165 158 153 158 172 259 229 258 208 161 175 174 147 51 341 319 52 17 341 291 355 294 341 310 275 261 250 271 10
143 147 150 147 150 157 158 158 161 168 217 269 261 264 199 173 165 166 169 181 172 193 291 305 330 348 323 325 326 337 343 354 350 353 230 258 286 317 341 305 301 282 348
145 145 148 152 154 158 165 170 169 171 168 271 246 258 239 217 179 173 176 182 180 181 177 169 314 318 317 313 320 323 328 334 337 336 339 342 343 344 347 328 308 308 354